Total_Precipitation_Accumulation
1.63 1.58 1.51 1.38 1.24 1.08 0.94 0.89 0.77 0.69 0.60 0.51 0.41 0.34 0.31 0.30 0.31 0.31 0.31 0.32 0.42 0.60 0.78 0.88 0.96 0.97 0.94 0.90 0.90 0.86 0.79 0.75 0.72 0.68 0.66 0.67 0.66 0.66 0.65 0.65 0.65 0.66 0.68
1.83 1.71 1.62 1.54 1.39 1.25 1.11 0.99 0.87 0.82 0.75 0.65 0.53 0.43 0.37 0.36 0.36 0.34 0.32 0.32 0.36 0.45 0.65 0.85 1.01 1.07 1.08 1.10 1.11 1.07 0.99 0.91 0.87 0.82 0.80 0.78 0.75 0.72 0.73 0.74 0.72 0.74 0.77
2.10 2.00 1.84 1.66 1.43 1.32 1.28 1.22 1.16 1.08 0.98 0.81 0.67 0.55 0.46 0.42 0.40 0.36 0.33 0.32 0.32 0.36 0.50 0.70 0.86 0.98 1.02 1.15 1.26 1.23 1.15 1.09 1.06 1.01 0.94 0.91 0.89 0.87 0.86 0.87 0.87 0.90 0.94
2.26 2.17 2.00 1.81 1.66 1.55 1.47 1.40 1.34 1.27 1.14 0.96 0.80 0.71 0.59 0.50 0.44 0.43 0.39 0.36 0.35 0.33 0.39 0.53 0.62 0.72 0.87 1.06 1.27 1.36 1.25 1.18 1.14 1.08 1.01 0.98 0.97 0.97 0.96 0.98 1.00 1.03 1.10
2.34 2.22 2.08 1.92 1.84 1.76 1.64 1.51 1.45 1.38 1.28 1.13 0.99 0.88 0.81 0.70 0.62 0.59 0.54 0.51 0.48 0.46 0.43 0.49 0.51 0.54 0.66 0.84 1.10 1.32 1.36 1.28 1.21 1.17 1.16 1.11 1.07 1.10 1.10 1.11 1.14 1.18 1.28
2.36 2.27 2.15 2.05 1.94 1.90 1.82 1.69 1.54 1.44 1.36 1.32 1.24 1.12 1.02 0.92 0.81 0.74 0.68 0.61 0.61 0.61 0.59 0.56 0.51 0.48 0.52 0.66 0.84 1.11 1.30 1.33 1.29 1.25 1.24 1.25 1.21 1.21 1.24 1.31 1.39 1.46 1.57
2.38 2.29 2.15 2.16 2.07 1.93 1.86 1.84 1.80 1.75 1.61 1.54 1.57 1.46 1.24 1.12 1.03 0.88 0.81 0.73 0.68 0.70 0.71 0.68 0.62 0.55 0.54 0.60 0.71 0.89 1.08 1.27 1.42 1.43 1.39 1.35 1.33 1.38 1.47 1.55 1.64 1.74 1.84
2.47 2.36 2.25 2.12 2.10 2.03 1.91 1.87 1.86 1.93 1.97 1.90 1.86 1.83 1.68 1.48 1.19 0.97 0.91 0.84 0.79 0.80 0.83 0.81 0.77 0.72 0.67 0.66 0.69 0.77 0.91 1.08 1.29 1.51 1.57 1.56 1.57 1.63 1.75 1.92 2.03 2.10 2.17
2.72 2.50 2.44 2.30 2.14 2.07 1.98 1.86 1.75 1.73 1.84 1.95 1.95 2.04 1.88 1.59 1.33 1.14 0.99 0.91 0.86 0.82 0.81 0.82 0.82 0.80 0.77 0.71 0.65 0.69 0.78 0.92 1.13 1.37 1.64 1.79 1.84 1.93 2.12 2.32 2.52 2.62 2.63
2.99 2.84 2.67 2.52 2.37 2.20 2.06 2.00 1.95 1.83 1.80 1.83 1.85 1.80 1.72 1.53 1.48 1.39 1.17 1.05 0.97 0.91 0.87 0.83 0.78 0.79 0.85 0.86 0.82 0.82 0.87 0.96 1.17 1.38 1.65 1.90 2.09 2.30 2.54 2.74 2.89 3.01 2.99
3.05 2.93 2.83 2.69 2.51 2.38 2.25 2.17 2.09 2.05 2.00 1.90 1.84 1.75 1.70 1.52 1.36 1.38 1.27 1.13 1.11 1.04 0.98 0.92 0.86 0.84 0.87 0.93 0.92 0.96 1.02 1.07 1.28 1.52 1.80 2.13 2.48 2.79 3.05 3.22 3.30 3.26 3.19
3.26 3.02 2.82 2.73 2.61 2.51 2.40 2.34 2.28 2.21 2.12 2.02 1.95 1.87 1.83 1.76 1.53 1.45 1.36 1.19 1.18 1.12 1.08 1.06 1.02 0.98 0.96 1.02 1.05 1.14 1.10 1.11 1.26 1.58 1.95 2.28 2.49 2.71 2.95 3.16 3.33 3.43 3.44
3.17 3.12 2.93 2.81 2.74 2.55 2.45 2.40 2.34 2.24 2.20 2.13 2.07 1.99 1.89 1.76 1.67 1.68 1.70 1.52 1.38 1.22 1.16 1.15 1.12 1.08 1.06 1.07 1.12 1.25 1.19 1.23 1.30 1.42 1.75 2.16 2.28 2.24 2.29 2.54 2.90 3.20 3.30
2.94 3.00 3.01 2.86 2.79 2.68 2.50 2.38 2.30 2.19 2.14 2.13 2.06 2.00 1.94 1.82 1.76 1.80 1.86 1.92 1.82 1.53 1.33 1.19 1.14 1.21 1.25 1.23 1.26 1.31 1.13 1.22 1.24 1.32 1.45 1.68 1.80 1.73 1.69 1.84 2.15 2.48 2.73
2.78 2.81 2.86 2.78 2.70 2.62 2.48 2.35 2.25 2.13 2.05 1.99 1.93 1.91 1.85 1.76 1.74 1.73 1.79 1.95 2.16 2.00 1.56 1.22 1.13 1.15 1.25 1.29 1.38 1.27 1.11 1.22 1.25 1.27 1.31 1.32 1.43 1.56 1.53 1.52 1.64 1.80 1.98
2.39 2.49 2.60 2.59 2.56 2.51 2.42 2.27 2.10 2.03 2.02 1.91 1.83 1.81 1.74 1.64 1.66 1.71 1.76 1.80 1.96 2.10 1.80 1.25 1.07 1.03 1.12 1.18 1.28 1.19 1.09 1.25 1.22 1.17 1.16 1.19 1.24 1.39 1.54 1.53 1.47 1.49 1.57
2.06 2.11 2.13 2.19 2.25 2.28 2.28 2.19 2.00 1.90 1.91 1.86 1.80 1.80 1.73 1.63 1.62 1.62 1.64 1.66 1.70 1.84 1.81 1.33 1.12 1.10 1.13 1.14 1.17 1.13 1.08 1.08 1.06 1.18 1.15 1.13 1.15 1.24 1.40 1.53 1.50 1.42 1.41
1.98 1.95 1.93 1.93 1.94 1.93 1.98 1.99 1.87 1.76 1.74 1.71 1.67 1.69 1.69 1.65 1.64 1.58 1.55 1.52 1.47 1.46 1.56 1.39 1.11 1.08 1.08 1.06 1.13 1.18 1.12 1.04 0.96 1.09 1.11 1.10 1.12 1.15 1.23 1.38 1.50 1.50 1.44
2.02 1.92 1.86 1.83 1.80 1.78 1.78 1.79 1.79 1.70 1.65 1.60 1.56 1.55 1.56 1.61 1.58 1.48 1.42 1.37 1.34 1.35 1.42 1.43 1.21 1.08 1.08 1.08 1.15 1.18 1.15 1.12 1.05 1.09 1.15 1.16 1.19 1.20 1.25 1.32 1.43 1.51 1.51
2.06 1.92 1.78 1.71 1.68 1.68 1.72 1.73 1.77 1.75 1.64 1.58 1.56 1.53 1.46 1.45 1.41 1.36 1.35 1.33 1.38 1.49 1.52 1.55 1.42 1.22 1.16 1.15 1.23 1.23 1.22 1.15 1.15 1.12 1.24 1.30 1.34 1.33 1.32 1.36 1.39 1.46 1.51
1.92 1.93 1.81 1.74 1.69 1.66 1.69 1.72 1.74 1.75 1.70 1.64 1.55 1.48 1.41 1.42 1.39 1.37 1.39 1.40 1.46 1.63 1.75 1.80 1.67 1.47 1.35 1.28 1.25 1.20 1.28 1.28 1.29 1.24 1.25 1.26 1.30 1.33 1.35 1.41 1.46 1.49 1.57
1.71 1.82 1.84 1.79 1.74 1.71 1.91 1.88 1.76 1.72 1.72 1.68 1.61 1.48 1.41 1.43 1.37 1.39 1.43 1.49 1.65 1.84 1.98 1.99 1.87 1.64 1.34 1.21 1.22 1.37 1.54 1.74 1.69 1.28 1.27 1.32 1.30 1.41 1.36 1.37 1.54 1.60 1.62
1.61 1.72 1.78 1.81 1.81 1.85 1.92 1.76 1.78 1.67 1.64 1.62 1.55 1.48 1.41 1.34 1.37 1.22 1.30 1.42 1.50 1.64 1.74 1.74 1.70 1.39 1.23 1.18 1.44 1.74 1.78 1.83 1.61 1.31 1.49 1.64 1.46 1.46 1.37 1.44 1.65 1.53 1.52
1.53 1.63 1.70 1.68 1.66 1.73 1.78 1.64 1.64 1.55 1.58 1.57 1.49 1.42 1.42 1.40 1.38 1.43 1.46 1.48 1.31 1.22 1.25 1.23 1.26 1.23 1.24 1.36 1.68 2.05 2.17 2.18 1.92 1.69 1.71 1.86 1.54 1.40 1.35 1.41 1.63 1.52 1.41
1.48 1.47 1.51 1.54 1.52 1.58 1.62 1.53 1.51 1.42 1.48 1.45 1.39 1.34 1.33 1.30 1.51 1.69 1.71 1.69 1.43 1.18 1.19 1.31 1.42 1.45 1.53 1.64 1.78 2.17 2.48 2.63 2.29 1.73 1.54 1.68 1.56 1.47 1.47 1.44 1.50 1.60 1.47
1.43 1.38 1.33 1.32 1.31 1.33 1.44 1.39 1.38 1.32 1.36 1.32 1.30 1.29 1.39 1.37 1.54 1.68 1.61 1.69 1.61 1.31 1.22 1.27 1.32 1.36 1.33 1.43 1.70 1.87 2.41 3.00 2.69 2.07 1.44 1.59 1.63 1.76 2.05 1.58 1.37 1.44 1.48